Date_Time,Julian_Date,Latitude,Longitude,Instrument_Depth,U,V,Speed,Direction
(yyyy-mm-dd hh:mn:ss UTC),(JD),(+ deg. North),(+ deg. East),(m),(cm/s),(cm/s),(cm/s),(deg True)
1982-01-24 16:00:00 UTC,2444994.166667,29.4519,-93.4333,0037,-16.78,8.92,19.0000,298.0000
1982-01-24 16:30:00 UTC,2444994.187500,29.4519,-93.4333,0037,-16.11,10.07,19.0000,302.0000
1982-01-24 17:00:00 UTC,2444994.208333,29.4519,-93.4333,0037,-13.58,10.23,17.0000,307.0000
1982-01-24 17:30:00 UTC,2444994.229167,29.4519,-93.4333,0037,-12.63,11.38,17.0000,312.0000
1982-01-24 18:00:00 UTC,2444994.250000,29.4519,-93.4333,0037,-10.71,11.89,16.0000,318.0000
1982-01-24 18:30:00 UTC,2444994.270833,29.4519,-93.4333,0037,-8.62,11.03,14.0000,322.0000
1982-01-24 19:00:00 UTC,2444994.291667,29.4519,-93.4333,0037,-8.00,10.24,13.0000,322.0000
1982-01-24 19:30:00 UTC,2444994.312500,29.4519,-93.4333,0037,-7.05,9.71,12.0000,324.0000
1982-01-24 20:00:00 UTC,2444994.333333,29.4519,-93.4333,0037,-5.45,8.39,10.0000,327.0000
1982-01-24 20:30:00 UTC,2444994.354167,29.4519,-93.4333,0037,-3.76,7.06,8.0000,332.0000
1982-01-24 21:00:00 UTC,2444994.375000,29.4519,-93.4333,0037,-1.75,5.74,6.0000,343.0000
1982-01-24 21:30:00 UTC,2444994.395833,29.4519,-93.4333,0037,-0.97,3.88,4.0000,346.0000
1982-01-24 22:00:00 UTC,2444994.416667,29.4519,-93.4333,0037,-2.85,0.93,3.0000,288.0000
1982-01-24 22:30:00 UTC,2444994.437500,29.4519,-93.4333,0037,-4.70,-1.71,5.0000,250.0000
1982-01-24 23:00:00 UTC,2444994.458333,29.4519,-93.4333,0037,-4.46,-2.27,5.0000,243.0000
1982-01-24 23:30:00 UTC,2444994.479167,29.4519,-93.4333,0037,-4.67,-1.79,5.0000,249.0000
1982-01-25 00:00:00 UTC,2444994.500000,29.4519,-93.4333,0037,-3.60,-1.75,4.0000,244.0000
1982-01-25 00:30:00 UTC,2444994.520833,29.4519,-93.4333,0037,-3.72,-3.35,5.0000,228.0000
1982-01-25 01:00:00 UTC,2444994.541667,29.4519,-93.4333,0037,-3.94,-3.08,5.0000,232.0000
1982-01-25 01:30:00 UTC,2444994.562500,29.4519,-93.4333,0037,-4.64,-1.87,5.0000,248.0000
1982-01-25 02:00:00 UTC,2444994.583333,29.4519,-93.4333,0037,-4.91,-0.95,5.0000,259.0000
1982-01-25 02:30:00 UTC,2444994.604167,29.4519,-93.4333,0037,-5.80,-1.55,6.0000,255.0000
1982-01-25 03:00:00 UTC,2444994.625000,29.4519,-93.4333,0037,-5.71,-1.85,6.0000,252.0000
1982-01-25 03:30:00 UTC,2444994.645833,29.4519,-93.4333,0037,-6.82,-1.57,7.0000,257.0000
1982-01-25 04:00:00 UTC,2444994.666667,29.4519,-93.4333,0037,-7.94,-0.97,8.0000,263.0000
1982-01-25 04:30:00 UTC,2444994.687500,29.4519,-93.4333,0037,-8.99,-0.47,9.0000,267.0000
1982-01-25 05:00:00 UTC,2444994.708333,29.4519,-93.4333,0037,-8.99,-0.31,9.0000,268.0000
1982-01-25 05:30:00 UTC,2444994.729167,29.4519,-93.4333,0037,-8.89,-1.41,9.0000,261.0000
1982-01-25 06:00:00 UTC,2444994.750000,29.4519,-93.4333,0037,-9.40,-3.42,10.0000,250.0000
1982-01-25 06:30:00 UTC,2444994.770833,29.4519,-93.4333,0037,-9.53,-5.50,11.0000,240.0000
1982-01-25 07:00:00 UTC,2444994.791667,29.4519,-93.4333,0037,-9.83,-6.88,12.0000,235.0000
1982-01-25 07:30:00 UTC,2444994.812500,29.4519,-93.4333,0037,-10.52,-7.64,13.0000,234.0000
1982-01-25 08:00:00 UTC,2444994.833333,29.4519,-93.4333,0037,-11.03,-8.62,14.0000,232.0000
1982-01-25 08:30:00 UTC,2444994.854167,29.4519,-93.4333,0037,-11.49,-9.64,15.0000,230.0000
1982-01-25 09:00:00 UTC,2444994.875000,29.4519,-93.4333,0037,-12.43,-10.07,16.0000,231.0000
1982-01-25 09:30:00 UTC,2444994.895833,29.4519,-93.4333,0037,-13.58,-10.23,17.0000,233.0000
1982-01-25 10:00:00 UTC,2444994.916667,29.4519,-93.4333,0037,-14.56,-10.58,18.0000,234.0000
1982-01-25 10:30:00 UTC,2444994.937500,29.4519,-93.4333,0037,-13.40,-10.47,17.0000,232.0000
1982-01-25 11:00:00 UTC,2444994.958333,29.4519,-93.4333,0037,-12.26,-10.28,16.0000,230.0000
1982-01-25 11:30:00 UTC,2444994.979167,29.4519,-93.4333,0037,-11.32,-9.84,15.0000,229.0000
1982-01-25 12:00:00 UTC,2444995.000000,29.4519,-93.4333,0037,-12.94,-9.40,16.0000,234.0000
1982-01-25 12:30:00 UTC,2444995.020833,29.4519,-93.4333,0037,-13.99,-7.76,16.0000,241.0000
1982-01-25 13:00:00 UTC,2444995.041667,29.4519,-93.4333,0037,-13.81,-5.86,15.0000,247.0000
1982-01-25 13:30:00 UTC,2444995.062500,29.4519,-93.4333,0037,-14.49,-3.88,15.0000,255.0000
1982-01-25 14:00:00 UTC,2444995.083333,29.4519,-93.4333,0037,-13.86,-1.95,14.0000,262.0000
1982-01-25 14:30:00 UTC,2444995.104167,29.4519,-93.4333,0037,-13.00,-0.23,13.0000,269.0000
1982-01-25 15:00:00 UTC,2444995.125000,29.4519,-93.4333,0037,-12.93,1.36,13.0000,276.0000
1982-01-25 15:30:00 UTC,2444995.145833,29.4519,-93.4333,0037,-11.69,2.70,12.0000,283.0000
1982-01-25 16:00:00 UTC,2444995.166667,29.4519,-93.4333,0037,-11.13,4.50,12.0000,292.0000
1982-01-25 16:30:00 UTC,2444995.187500,29.4519,-93.4333,0037,-11.26,6.50,13.0000,300.0000
1982-01-25 17:00:00 UTC,2444995.208333,29.4519,-93.4333,0037,-11.82,9.23,15.0000,308.0000
1982-01-25 17:30:00 UTC,2444995.229167,29.4519,-93.4333,0037,-12.43,11.59,17.0000,313.0000
1982-01-25 18:00:00 UTC,2444995.250000,29.4519,-93.4333,0037,-11.81,12.23,17.0000,316.0000
1982-01-25 18:30:00 UTC,2444995.270833,29.4519,-93.4333,0037,-10.91,11.70,16.0000,317.0000
1982-01-25 19:00:00 UTC,2444995.291667,29.4519,-93.4333,0037,-11.11,11.51,16.0000,316.0000
1982-01-25 19:30:00 UTC,2444995.312500,29.4519,-93.4333,0037,-11.15,10.04,15.0000,312.0000
1982-01-25 20:00:00 UTC,2444995.333333,29.4519,-93.4333,0037,-10.52,7.64,13.0000,306.0000
1982-01-25 20:30:00 UTC,2444995.354167,29.4519,-93.4333,0037,-9.80,4.99,11.0000,297.0000
1982-01-25 21:00:00 UTC,2444995.375000,29.4519,-93.4333,0037,-9.78,2.08,10.0000,282.0000
1982-01-25 21:30:00 UTC,2444995.395833,29.4519,-93.4333,0037,-10.00,0.17,10.0000,271.0000
1982-01-25 22:00:00 UTC,2444995.416667,29.4519,-93.4333,0037,-8.98,-0.63,9.0000,266.0000
1982-01-25 22:30:00 UTC,2444995.437500,29.4519,-93.4333,0037,-6.82,-1.57,7.0000,257.0000
1982-01-25 23:00:00 UTC,2444995.458333,29.4519,-93.4333,0037,-5.20,-3.00,6.0000,240.0000
1982-01-25 23:30:00 UTC,2444995.479167,29.4519,-93.4333,0037,-4.86,-5.04,7.0000,224.0000
1982-01-26 00:00:00 UTC,2444995.500000,29.4519,-93.4333,0037,-4.41,-5.44,7.0000,219.0000
1982-01-26 00:30:00 UTC,2444995.520833,29.4519,-93.4333,0037,-4.68,-5.20,7.0000,222.0000
1982-01-26 01:00:00 UTC,2444995.541667,29.4519,-93.4333,0037,-5.04,-4.86,7.0000,226.0000
1982-01-26 01:30:00 UTC,2444995.562500,29.4519,-93.4333,0037,-5.52,-4.31,7.0000,232.0000
1982-01-26 02:00:00 UTC,2444995.583333,29.4519,-93.4333,0037,-5.25,-2.91,6.0000,241.0000
1982-01-26 02:30:00 UTC,2444995.604167,29.4519,-93.4333,0037,-4.57,-2.03,5.0000,246.0000
1982-01-26 03:00:00 UTC,2444995.625000,29.4519,-93.4333,0037,-4.46,-2.27,5.0000,243.0000
1982-01-26 03:30:00 UTC,2444995.645833,29.4519,-93.4333,0037,-5.44,-2.54,6.0000,245.0000
1982-01-26 04:00:00 UTC,2444995.666667,29.4519,-93.4333,0037,-7.69,-2.21,8.0000,254.0000
1982-01-26 04:30:00 UTC,2444995.687500,29.4519,-93.4333,0037,-7.94,-0.97,8.0000,263.0000
1982-01-26 05:00:00 UTC,2444995.708333,29.4519,-93.4333,0037,-8.99,-0.31,9.0000,268.0000
1982-01-26 05:30:00 UTC,2444995.729167,29.4519,-93.4333,0037,-8.99,-0.47,9.0000,267.0000
1982-01-26 06:00:00 UTC,2444995.750000,29.4519,-93.4333,0037,-9.90,-1.39,10.0000,262.0000
1982-01-26 06:30:00 UTC,2444995.770833,29.4519,-93.4333,0037,-10.76,-2.29,11.0000,258.0000
1982-01-26 07:00:00 UTC,2444995.791667,29.4519,-93.4333,0037,-11.59,-3.11,12.0000,255.0000
1982-01-26 07:30:00 UTC,2444995.812500,29.4519,-93.4333,0037,-12.14,-4.66,13.0000,249.0000
1982-01-26 08:00:00 UTC,2444995.833333,29.4519,-93.4333,0037,-11.78,-5.49,13.0000,245.0000
1982-01-26 08:30:00 UTC,2444995.854167,29.4519,-93.4333,0037,-12.05,-4.87,13.0000,248.0000
1982-01-26 09:00:00 UTC,2444995.875000,29.4519,-93.4333,0037,-12.67,-2.92,13.0000,257.0000
1982-01-26 09:30:00 UTC,2444995.895833,29.4519,-93.4333,0037,-12.98,-0.68,13.0000,267.0000
1982-01-26 10:00:00 UTC,2444995.916667,29.4519,-93.4333,0037,-13.99,-0.49,14.0000,268.0000
1982-01-26 10:30:00 UTC,2444995.937500,29.4519,-93.4333,0037,-13.92,-1.46,14.0000,264.0000
1982-01-26 11:00:00 UTC,2444995.958333,29.4519,-93.4333,0037,-13.74,-2.67,14.0000,259.0000
1982-01-26 11:30:00 UTC,2444995.979167,29.4519,-93.4333,0037,-14.55,-3.63,15.0000,256.0000
1982-01-26 12:00:00 UTC,2444996.000000,29.4519,-93.4333,0037,-15.45,-4.14,16.0000,255.0000
1982-01-26 12:30:00 UTC,2444996.020833,29.4519,-93.4333,0037,-14.55,-3.63,15.0000,256.0000
1982-01-26 13:00:00 UTC,2444996.041667,29.4519,-93.4333,0037,-14.62,-3.37,15.0000,257.0000
1982-01-26 13:30:00 UTC,2444996.062500,29.4519,-93.4333,0037,-16.63,-3.53,17.0000,258.0000
1982-01-26 14:00:00 UTC,2444996.083333,29.4519,-93.4333,0037,-16.79,-2.66,17.0000,261.0000
1982-01-26 14:30:00 UTC,2444996.104167,29.4519,-93.4333,0037,-17.90,-1.88,18.0000,264.0000
1982-01-26 15:00:00 UTC,2444996.125000,29.4519,-93.4333,0037,-18.95,-1.33,19.0000,266.0000
1982-01-26 15:30:00 UTC,2444996.145833,29.4519,-93.4333,0037,-20.00,-0.35,20.0000,269.0000
1982-01-26 16:00:00 UTC,2444996.166667,29.4519,-93.4333,0037,-18.86,2.32,19.0000,277.0000
1982-01-26 16:30:00 UTC,2444996.187500,29.4519,-93.4333,0037,-17.02,5.86,18.0000,289.0000
1982-01-26 17:00:00 UTC,2444996.208333,29.4519,-93.4333,0037,-15.74,8.73,18.0000,299.0000
1982-01-26 17:30:00 UTC,2444996.229167,29.4519,-93.4333,0037,-12.61,9.85,16.0000,308.0000
1982-01-26 18:00:00 UTC,2444996.250000,29.4519,-93.4333,0037,-9.37,10.40,14.0000,318.0000
1982-01-26 18:30:00 UTC,2444996.270833,29.4519,-93.4333,0037,-7.46,10.65,13.0000,325.0000
1982-01-26 19:00:00 UTC,2444996.291667,29.4519,-93.4333,0037,-6.71,9.95,12.0000,326.0000
1982-01-26 19:30:00 UTC,2444996.312500,29.4519,-93.4333,0037,-6.31,9.01,11.0000,325.0000
1982-01-26 20:00:00 UTC,2444996.333333,29.4519,-93.4333,0037,-6.15,9.12,11.0000,326.0000
1982-01-26 20:30:00 UTC,2444996.354167,29.4519,-93.4333,0037,-4.69,8.83,10.0000,332.0000
1982-01-26 21:00:00 UTC,2444996.375000,29.4519,-93.4333,0037,-2.93,8.51,9.0000,341.0000
1982-01-26 21:30:00 UTC,2444996.395833,29.4519,-93.4333,0037,-1.80,7.79,8.0000,347.0000
1982-01-26 22:00:00 UTC,2444996.416667,29.4519,-93.4333,0037,-1.14,5.89,6.0000,349.0000
1982-01-26 22:30:00 UTC,2444996.437500,29.4519,-93.4333,0037,-0.42,3.98,4.0000,354.0000
1982-01-26 23:00:00 UTC,2444996.458333,29.4519,-93.4333,0037,2.01,2.23,3.0000,42.0000
1982-01-26 23:30:00 UTC,2444996.479167,29.4519,-93.4333,0037,3.78,1.30,4.0000,71.0000
1982-01-27 00:00:00 UTC,2444996.500000,29.4519,-93.4333,0037,4.98,0.44,5.0000,85.0000
1982-01-27 00:30:00 UTC,2444996.520833,29.4519,-93.4333,0037,4.94,-0.78,5.0000,99.0000
1982-01-27 01:00:00 UTC,2444996.541667,29.4519,-93.4333,0037,4.67,-1.79,5.0000,111.0000
1982-01-27 01:30:00 UTC,2444996.562500,29.4519,-93.4333,0037,4.05,-2.94,5.0000,126.0000
1982-01-27 02:00:00 UTC,2444996.583333,29.4519,-93.4333,0037,2.83,-2.83,4.0000,135.0000
1982-01-27 02:30:00 UTC,2444996.604167,29.4519,-93.4333,0037,2.88,-2.78,4.0000,134.0000
1982-01-27 03:00:00 UTC,2444996.625000,29.4519,-93.4333,0037,2.16,-2.08,3.0000,134.0000
1982-01-27 03:30:00 UTC,2444996.645833,29.4519,-93.4333,0037,1.68,-1.09,2.0000,123.0000
1982-01-27 04:00:00 UTC,2444996.666667,29.4519,-93.4333,0037,1.98,-0.28,2.0000,98.0000
1982-01-27 04:30:00 UTC,2444996.687500,29.4519,-93.4333,0037,1.87,0.72,2.0000,69.0000
1982-01-27 05:00:00 UTC,2444996.708333,29.4519,-93.4333,0037,1.55,2.57,3.0000,31.0000
1982-01-27 05:30:00 UTC,2444996.729167,29.4519,-93.4333,0037,1.69,3.63,4.0000,25.0000
1982-01-27 06:00:00 UTC,2444996.750000,29.4519,-93.4333,0037,1.43,3.73,4.0000,21.0000
1982-01-27 06:30:00 UTC,2444996.770833,29.4519,-93.4333,0037,0.90,3.90,4.0000,13.0000
1982-01-27 07:00:00 UTC,2444996.791667,29.4519,-93.4333,0037,0.26,2.99,3.0000,5.0000
1982-01-27 07:30:00 UTC,2444996.812500,29.4519,-93.4333,0037,-0.52,2.95,3.0000,350.0000
1982-01-27 08:00:00 UTC,2444996.833333,29.4519,-93.4333,0037,-1.59,2.54,3.0000,328.0000
1982-01-27 08:30:00 UTC,2444996.854167,29.4519,-93.4333,0037,-2.60,1.50,3.0000,300.0000
1982-01-27 09:00:00 UTC,2444996.875000,29.4519,-93.4333,0037,-2.97,-0.42,3.0000,262.0000
1982-01-27 09:30:00 UTC,2444996.895833,29.4519,-93.4333,0037,-3.56,-1.82,4.0000,243.0000
1982-01-27 10:00:00 UTC,2444996.916667,29.4519,-93.4333,0037,-3.77,-3.28,5.0000,229.0000
1982-01-27 10:30:00 UTC,2444996.937500,29.4519,-93.4333,0037,-3.91,-5.80,7.0000,214.0000
1982-01-27 11:00:00 UTC,2444996.958333,29.4519,-93.4333,0037,-3.66,-8.22,9.0000,204.0000
1982-01-27 11:30:00 UTC,2444996.979167,29.4519,-93.4333,0037,-4.47,-10.05,11.0000,204.0000
1982-01-27 12:00:00 UTC,2444997.000000,29.4519,-93.4333,0037,-6.50,-11.26,13.0000,210.0000
1982-01-27 12:30:00 UTC,2444997.020833,29.4519,-93.4333,0037,-9.23,-11.82,15.0000,218.0000
1982-01-27 13:00:00 UTC,2444997.041667,29.4519,-93.4333,0037,-11.51,-11.11,16.0000,226.0000
1982-01-27 13:30:00 UTC,2444997.062500,29.4519,-93.4333,0037,-12.43,-10.07,16.0000,231.0000
1982-01-27 14:00:00 UTC,2444997.083333,29.4519,-93.4333,0037,-13.11,-9.18,16.0000,235.0000
1982-01-27 14:30:00 UTC,2444997.104167,29.4519,-93.4333,0037,-13.37,-6.81,15.0000,243.0000
1982-01-27 15:00:00 UTC,2444997.125000,29.4519,-93.4333,0037,-14.42,-4.13,15.0000,254.0000
1982-01-27 15:30:00 UTC,2444997.145833,29.4519,-93.4333,0037,-15.96,-1.12,16.0000,266.0000
1982-01-27 16:00:00 UTC,2444997.166667,29.4519,-93.4333,0037,-16.74,2.95,17.0000,280.0000
1982-01-27 16:30:00 UTC,2444997.187500,29.4519,-93.4333,0037,-16.57,7.03,18.0000,293.0000
1982-01-27 17:00:00 UTC,2444997.208333,29.4519,-93.4333,0037,-14.92,10.07,18.0000,304.0000
1982-01-27 17:30:00 UTC,2444997.229167,29.4519,-93.4333,0037,-13.02,10.93,17.0000,310.0000
1982-01-27 18:00:00 UTC,2444997.250000,29.4519,-93.4333,0037,-11.15,10.04,15.0000,312.0000
1982-01-27 18:30:00 UTC,2444997.270833,29.4519,-93.4333,0037,-10.72,9.00,14.0000,310.0000
1982-01-27 19:00:00 UTC,2444997.291667,29.4519,-93.4333,0037,-11.47,8.03,14.0000,305.0000
1982-01-27 19:30:00 UTC,2444997.312500,29.4519,-93.4333,0037,-12.36,6.57,14.0000,298.0000
1982-01-27 20:00:00 UTC,2444997.333333,29.4519,-93.4333,0037,-13.07,5.02,14.0000,291.0000
1982-01-27 20:30:00 UTC,2444997.354167,29.4519,-93.4333,0037,-13.46,3.86,14.0000,286.0000
1982-01-27 21:00:00 UTC,2444997.375000,29.4519,-93.4333,0037,-12.76,2.48,13.0000,281.0000
1982-01-27 21:30:00 UTC,2444997.395833,29.4519,-93.4333,0037,-12.00,-0.00,12.0000,270.0000
1982-01-27 22:00:00 UTC,2444997.416667,29.4519,-93.4333,0037,-10.63,-2.85,11.0000,255.0000
1982-01-27 22:30:00 UTC,2444997.437500,29.4519,-93.4333,0037,-9.80,-4.99,11.0000,243.0000
1982-01-27 23:00:00 UTC,2444997.458333,29.4519,-93.4333,0037,-9.01,-6.31,11.0000,235.0000
1982-01-27 23:30:00 UTC,2444997.479167,29.4519,-93.4333,0037,-8.30,-7.22,11.0000,229.0000
1982-01-28 00:00:00 UTC,2444997.500000,29.4519,-93.4333,0037,-7.07,-7.07,10.0000,225.0000
1982-01-28 00:30:00 UTC,2444997.520833,29.4519,-93.4333,0037,-7.36,-8.17,11.0000,222.0000
1982-01-28 01:00:00 UTC,2444997.541667,29.4519,-93.4333,0037,-7.39,-9.46,12.0000,218.0000
1982-01-28 01:30:00 UTC,2444997.562500,29.4519,-93.4333,0037,-7.08,-10.90,13.0000,213.0000
1982-01-28 02:00:00 UTC,2444997.583333,29.4519,-93.4333,0037,-6.71,-9.95,12.0000,214.0000
1982-01-28 02:30:00 UTC,2444997.604167,29.4519,-93.4333,0037,-6.92,-8.55,11.0000,219.0000
1982-01-28 03:00:00 UTC,2444997.625000,29.4519,-93.4333,0037,-8.17,-7.36,11.0000,228.0000
1982-01-28 03:30:00 UTC,2444997.645833,29.4519,-93.4333,0037,-8.39,-5.45,10.0000,237.0000
1982-01-28 04:00:00 UTC,2444997.666667,29.4519,-93.4333,0037,-8.22,-3.66,9.0000,246.0000
1982-01-28 04:30:00 UTC,2444997.687500,29.4519,-93.4333,0037,-7.73,-2.07,8.0000,255.0000
1982-01-28 05:00:00 UTC,2444997.708333,29.4519,-93.4333,0037,-6.96,-0.73,7.0000,264.0000
1982-01-28 05:30:00 UTC,2444997.729167,29.4519,-93.4333,0037,-6.00,-0.21,6.0000,268.0000
1982-01-28 06:00:00 UTC,2444997.750000,29.4519,-93.4333,0037,-7.00,-0.00,7.0000,270.0000
1982-01-28 06:30:00 UTC,2444997.770833,29.4519,-93.4333,0037,-7.00,0.24,7.0000,272.0000
1982-01-28 07:00:00 UTC,2444997.791667,29.4519,-93.4333,0037,-6.00,-0.21,6.0000,268.0000
1982-01-28 07:30:00 UTC,2444997.812500,29.4519,-93.4333,0037,-5.67,-1.95,6.0000,251.0000
1982-01-28 08:00:00 UTC,2444997.833333,29.4519,-93.4333,0037,-6.39,-4.81,8.0000,233.0000
1982-01-28 08:30:00 UTC,2444997.854167,29.4519,-93.4333,0037,-8.04,-7.50,11.0000,227.0000
1982-01-28 09:00:00 UTC,2444997.875000,29.4519,-93.4333,0037,-9.35,-9.03,13.0000,226.0000
1982-01-28 09:30:00 UTC,2444997.895833,29.4519,-93.4333,0037,-10.24,-9.55,14.0000,227.0000
1982-01-28 10:00:00 UTC,2444997.916667,29.4519,-93.4333,0037,-10.07,-9.73,14.0000,226.0000
1982-01-28 10:30:00 UTC,2444997.937500,29.4519,-93.4333,0037,-9.55,-10.24,14.0000,223.0000
1982-01-28 11:00:00 UTC,2444997.958333,29.4519,-93.4333,0037,-9.73,-10.07,14.0000,224.0000
1982-01-28 11:30:00 UTC,2444997.979167,29.4519,-93.4333,0037,-10.24,-9.55,14.0000,227.0000
1982-01-28 12:00:00 UTC,2444998.000000,29.4519,-93.4333,0037,-10.24,-9.55,14.0000,227.0000
1982-01-28 12:30:00 UTC,2444998.020833,29.4519,-93.4333,0037,-10.40,-9.37,14.0000,228.0000
1982-01-28 13:00:00 UTC,2444998.041667,29.4519,-93.4333,0037,-11.66,-9.44,15.0000,231.0000
1982-01-28 13:30:00 UTC,2444998.062500,29.4519,-93.4333,0037,-11.98,-9.03,15.0000,233.0000
1982-01-28 14:00:00 UTC,2444998.083333,29.4519,-93.4333,0037,-12.86,-7.73,15.0000,239.0000
1982-01-28 14:30:00 UTC,2444998.104167,29.4519,-93.4333,0037,-14.83,-5.99,16.0000,248.0000
1982-01-28 15:00:00 UTC,2444998.125000,29.4519,-93.4333,0037,-15.71,-3.05,16.0000,259.0000
1982-01-28 15:30:00 UTC,2444998.145833,29.4519,-93.4333,0037,-15.98,0.84,16.0000,273.0000
1982-01-28 16:00:00 UTC,2444998.166667,29.4519,-93.4333,0037,-17.39,4.66,18.0000,285.0000
1982-01-28 16:30:00 UTC,2444998.187500,29.4519,-93.4333,0037,-18.67,7.17,20.0000,291.0000
1982-01-28 17:00:00 UTC,2444998.208333,29.4519,-93.4333,0037,-17.22,8.03,19.0000,295.0000
1982-01-28 17:30:00 UTC,2444998.229167,29.4519,-93.4333,0037,-17.22,8.03,19.0000,295.0000
1982-01-28 18:00:00 UTC,2444998.250000,29.4519,-93.4333,0037,-17.62,7.12,19.0000,292.0000
1982-01-28 18:30:00 UTC,2444998.270833,29.4519,-93.4333,0037,-18.79,6.84,20.0000,290.0000
1982-01-28 19:00:00 UTC,2444998.291667,29.4519,-93.4333,0037,-17.85,6.50,19.0000,290.0000
1982-01-28 19:30:00 UTC,2444998.312500,29.4519,-93.4333,0037,-17.36,7.73,19.0000,294.0000
1982-01-28 20:00:00 UTC,2444998.333333,29.4519,-93.4333,0037,-17.49,9.70,20.0000,299.0000
1982-01-28 20:30:00 UTC,2444998.354167,29.4519,-93.4333,0037,-18.19,10.50,21.0000,300.0000
1982-01-28 21:00:00 UTC,2444998.375000,29.4519,-93.4333,0037,-18.37,10.18,21.0000,299.0000
1982-01-28 21:30:00 UTC,2444998.395833,29.4519,-93.4333,0037,-18.71,9.53,21.0000,297.0000
1982-01-28 22:00:00 UTC,2444998.416667,29.4519,-93.4333,0037,-18.87,9.21,21.0000,296.0000
1982-01-28 22:30:00 UTC,2444998.437500,29.4519,-93.4333,0037,-17.98,8.77,20.0000,296.0000
1982-01-28 23:00:00 UTC,2444998.458333,29.4519,-93.4333,0037,-17.36,7.73,19.0000,294.0000
1982-01-28 23:30:00 UTC,2444998.479167,29.4519,-93.4333,0037,-15.76,6.37,17.0000,292.0000
1982-01-29 00:00:00 UTC,2444998.500000,29.4519,-93.4333,0037,-14.10,5.13,15.0000,290.0000
1982-01-29 00:30:00 UTC,2444998.520833,29.4519,-93.4333,0037,-13.46,3.86,14.0000,286.0000
1982-01-29 01:00:00 UTC,2444998.541667,29.4519,-93.4333,0037,-12.84,2.03,13.0000,279.0000
1982-01-29 01:30:00 UTC,2444998.562500,29.4519,-93.4333,0037,-12.97,0.91,13.0000,274.0000
1982-01-29 02:00:00 UTC,2444998.583333,29.4519,-93.4333,0037,-13.97,0.98,14.0000,274.0000
1982-01-29 02:30:00 UTC,2444998.604167,29.4519,-93.4333,0037,-14.85,2.09,15.0000,278.0000
1982-01-29 03:00:00 UTC,2444998.625000,29.4519,-93.4333,0037,-15.71,3.05,16.0000,281.0000
1982-01-29 03:30:00 UTC,2444998.645833,29.4519,-93.4333,0037,-15.52,3.87,16.0000,284.0000
1982-01-29 04:00:00 UTC,2444998.666667,29.4519,-93.4333,0037,-15.22,4.94,16.0000,288.0000
1982-01-29 04:30:00 UTC,2444998.687500,29.4519,-93.4333,0037,-13.91,5.62,15.0000,292.0000
1982-01-29 05:00:00 UTC,2444998.708333,29.4519,-93.4333,0037,-13.59,6.34,15.0000,295.0000
1982-01-29 05:30:00 UTC,2444998.729167,29.4519,-93.4333,0037,-12.86,7.73,15.0000,301.0000
1982-01-29 06:00:00 UTC,2444998.750000,29.4519,-93.4333,0037,-12.78,9.63,16.0000,307.0000
1982-01-29 06:30:00 UTC,2444998.770833,29.4519,-93.4333,0037,-11.32,9.84,15.0000,311.0000
1982-01-29 07:00:00 UTC,2444998.791667,29.4519,-93.4333,0037,-10.40,9.37,14.0000,312.0000
1982-01-29 07:30:00 UTC,2444998.812500,29.4519,-93.4333,0037,-10.88,8.81,14.0000,309.0000
1982-01-29 08:00:00 UTC,2444998.833333,29.4519,-93.4333,0037,-10.65,7.46,13.0000,305.0000
1982-01-29 08:30:00 UTC,2444998.854167,29.4519,-93.4333,0037,-12.00,7.21,14.0000,301.0000
1982-01-29 09:00:00 UTC,2444998.875000,29.4519,-93.4333,0037,-13.12,7.27,15.0000,299.0000
1982-01-29 09:30:00 UTC,2444998.895833,29.4519,-93.4333,0037,-13.24,7.04,15.0000,298.0000
1982-01-29 10:00:00 UTC,2444998.916667,29.4519,-93.4333,0037,-13.91,5.62,15.0000,292.0000
1982-01-29 10:30:00 UTC,2444998.937500,29.4519,-93.4333,0037,-14.62,3.37,15.0000,283.0000
1982-01-29 11:00:00 UTC,2444998.958333,29.4519,-93.4333,0037,-13.95,1.22,14.0000,275.0000
1982-01-29 11:30:00 UTC,2444998.979167,29.4519,-93.4333,0037,-11.99,0.42,12.0000,272.0000
1982-01-29 12:00:00 UTC,2444999.000000,29.4519,-93.4333,0037,-9.00,-0.16,9.0000,269.0000
1982-01-29 12:30:00 UTC,2444999.020833,29.4519,-93.4333,0037,-6.58,-2.39,7.0000,250.0000
1982-01-29 13:00:00 UTC,2444999.041667,29.4519,-93.4333,0037,-6.04,-5.25,8.0000,229.0000
1982-01-29 13:30:00 UTC,2444999.062500,29.4519,-93.4333,0037,-7.78,-7.78,11.0000,225.0000
1982-01-29 14:00:00 UTC,2444999.083333,29.4519,-93.4333,0037,-10.10,-8.18,13.0000,231.0000
1982-01-29 14:30:00 UTC,2444999.104167,29.4519,-93.4333,0037,-12.86,-7.73,15.0000,239.0000
1982-01-29 15:00:00 UTC,2444999.125000,29.4519,-93.4333,0037,-13.99,-7.76,16.0000,241.0000
1982-01-29 15:30:00 UTC,2444999.145833,29.4519,-93.4333,0037,-14.13,-7.51,16.0000,242.0000
1982-01-29 16:00:00 UTC,2444999.166667,29.4519,-93.4333,0037,-14.73,-6.25,16.0000,247.0000
1982-01-29 16:30:00 UTC,2444999.187500,29.4519,-93.4333,0037,-15.45,-4.14,16.0000,255.0000
1982-01-29 17:00:00 UTC,2444999.208333,29.4519,-93.4333,0037,-15.45,-4.14,16.0000,255.0000
1982-01-29 17:30:00 UTC,2444999.229167,29.4519,-93.4333,0037,-15.97,-5.81,17.0000,250.0000
1982-01-29 18:00:00 UTC,2444999.250000,29.4519,-93.4333,0037,-18.26,-5.24,19.0000,254.0000
1982-01-29 18:30:00 UTC,2444999.270833,29.4519,-93.4333,0037,-19.81,-2.78,20.0000,262.0000
1982-01-29 19:00:00 UTC,2444999.291667,29.4519,-93.4333,0037,-20.99,-0.73,21.0000,268.0000
1982-01-29 19:30:00 UTC,2444999.312500,29.4519,-93.4333,0037,-21.95,1.53,22.0000,274.0000
1982-01-29 20:00:00 UTC,2444999.333333,29.4519,-93.4333,0037,-21.67,3.82,22.0000,280.0000
1982-01-29 20:30:00 UTC,2444999.354167,29.4519,-93.4333,0037,-21.75,7.49,23.0000,289.0000
1982-01-29 21:00:00 UTC,2444999.375000,29.4519,-93.4333,0037,-21.43,12.88,25.0000,301.0000
1982-01-29 21:30:00 UTC,2444999.395833,29.4519,-93.4333,0037,-20.73,13.98,25.0000,304.0000
1982-01-29 22:00:00 UTC,2444999.416667,29.4519,-93.4333,0037,-22.29,13.39,26.0000,301.0000
1982-01-29 22:30:00 UTC,2444999.437500,29.4519,-93.4333,0037,-22.74,12.60,26.0000,299.0000
1982-01-29 23:00:00 UTC,2444999.458333,29.4519,-93.4333,0037,-21.19,11.27,24.0000,298.0000
1982-01-29 23:30:00 UTC,2444999.479167,29.4519,-93.4333,0037,-19.94,9.30,22.0000,295.0000
1982-01-30 00:00:00 UTC,2444999.500000,29.4519,-93.4333,0037,-18.67,7.17,20.0000,291.0000
1982-01-30 00:30:00 UTC,2444999.520833,29.4519,-93.4333,0037,-17.39,4.66,18.0000,285.0000
1982-01-30 01:00:00 UTC,2444999.541667,29.4519,-93.4333,0037,-16.87,2.07,17.0000,277.0000
1982-01-30 01:30:00 UTC,2444999.562500,29.4519,-93.4333,0037,-16.99,-0.59,17.0000,268.0000
1982-01-30 02:00:00 UTC,2444999.583333,29.4519,-93.4333,0037,-17.78,-2.82,18.0000,261.0000
1982-01-30 02:30:00 UTC,2444999.604167,29.4519,-93.4333,0037,-19.63,-3.82,20.0000,259.0000
1982-01-30 03:00:00 UTC,2444999.625000,29.4519,-93.4333,0037,-20.46,-4.72,21.0000,257.0000
1982-01-30 03:30:00 UTC,2444999.645833,29.4519,-93.4333,0037,-19.41,-4.84,20.0000,256.0000
1982-01-30 04:00:00 UTC,2444999.666667,29.4519,-93.4333,0037,-19.49,-4.50,20.0000,257.0000